Location: Curicchi
(45.0167°N, 12.0500°E)
Time: 15:45:21
(UTC+00:00)

ISS - Visible Passes

Search period start: 23 July 2021 00:00
Search period end: 02 August 2021 00:00
Orbit: 419 x 421 km, 51.6° (Epoch: 22 July)

Date Brightness Start Highest point End Pass type
(mag) Time Alt. Az. Time Alt. Az. Time Alt. Az.
23 Jul -1.6 19:29:50 10° WNW 19:32:44 26° N 19:35:38 10° NE visible
23 Jul -2.3 21:07:01 10° NW 21:10:10 35° NNE 21:11:44 22° ENE visible
23 Jul -1.2 22:43:48 10° WNW 22:44:40 17° WNW 22:44:40 17° WNW visible
24 Jul -2.0 20:19:42 10° NW 20:22:44 30° NNE 20:25:46 10° ENE visible
24 Jul -2.7 21:56:27 10° WNW 21:58:48 42° WNW 21:58:48 42° WNW visible
25 Jul -1.8 19:32:19 10° NW 19:35:16 27° N 19:38:12 10° ENE visible
25 Jul -3.5 21:09:09 10° WNW 21:12:31 64° NNE 21:12:58 56° ENE visible
26 Jul -2.9 20:21:52 10° NW 20:25:08 46° NNE 20:27:10 20° E visible
26 Jul -1.5 21:58:49 10° WNW 22:00:07 20° W 22:00:07 20° W visible
27 Jul -2.4 19:34:34 10° NW 19:37:43 35° NNE 19:40:52 10° E visible
27 Jul -3.3 21:11:21 10° WNW 21:14:20 51° WSW 21:14:20 51° WSW visible
28 Jul -3.8 20:23:58 10° WNW 20:27:21 85° SSW 20:28:36 36° SE visible
29 Jul -3.5 19:36:38 10° WNW 19:40:00 65° NNE 19:42:54 13° ESE visible
29 Jul -1.7 21:13:56 10° W 21:15:52 20° WSW 21:15:52 20° WSW visible
30 Jul -2.7 20:26:16 10° WNW 20:29:20 33° SW 20:30:12 28° S visible
31 Jul -3.3 19:38:46 10° WNW 19:42:04 53° SW 19:44:36 16° SE visible
01 Aug -1.3 20:29:27 10° WSW 20:31:05 13° SW 20:32:01 12° SSW visible
